Linz Airport, Austria

4:20 PM CET on November 19, 2017 (GMT +0100)
Linz

Weather History for LOWL - October, 2012

Change the Weather History Date:

Tuesday, October 9, 2012

  Actual Average Record
Temperature  
Mean Temperature 46 °F -  
Max Temperature 53 °F 51 °F 75 °F (1997)
Min Temperature 39 °F 39 °F 35 °F (2002)
Degree Days  
Heating Degree Days 19    
Moisture  
Dew Point 45 °F    
Average Humidity 92    
Maximum Humidity 100    
Minimum Humidity 86    
Precipitation  
Precipitation 0.12 in - - ()
Sea Level Pressure  
Sea Level Pressure 29.90 in    
Wind  
Wind Speed 2 mph ()    
Max Wind Speed 9 mph    
Max Gust Speed -    
Visibility 5.4 miles    
Events Rain    
Averages and records for this station are not official NWS values.
T = Trace of Precipitation, MM = Missing Value Source: Averaged Metar Reports

Daily Weather History Graph

Daily Weather History Graph

Search for Another Location

Airport or City:

Trip Planner

Search our weather history database for the weather conditions in past years. The results will help you decide how hot, cold, wet, or windy it might be!

Date:

Astronomy

Oct. 09, 2012 Rise Set
Actual Time 7:14 AM CEST 6:25 PM CEST
Civil Twilight 6:43 AM CEST 6:56 PM CEST
Nautical Twilight 6:06 AM CEST 7:32 PM CEST
Astronomical Twilight 5:30 AM CEST 8:09 PM CEST
Moon 12:05 AM CEST (10/9) 3:08 PM CEST (10/9)
Length of Visible Light 12h 13m
Length of Day
11h 11m
Last Quarter, 39% of the Moon is Illuminated
Oct 9
Last Quarter
Oct 15
New
Oct 22
First Quarter
Oct 29
Full
Nov 7
Last Quarter

Hourly Weather History & Observations

Time (CEST) Temp. Windchill Dew Point Humidity Pressure Visibility Wind Dir Wind Speed Gust Speed Precip Events Conditions
12:20 AM 42.8 °F - 41.0 °F 93% 29.98 in 6.2 mi Variable 2.3 mph - N/A   Mostly Cloudy
12:50 AM 42.8 °F - 41.0 °F 93% 29.98 in 6.2 mi ENE 2.3 mph - N/A   Scattered Clouds
1:20 AM 42.8 °F 41.1 °F 39.2 °F 87% 29.95 in 6.2 mi East 3.5 mph - N/A   Partly Cloudy
1:50 AM 42.8 °F - 39.2 °F 87% 29.95 in 6.2 mi ENE 2.3 mph - N/A   Mostly Cloudy
2:00 AM 42 °F - 39 °F 86% 29.98 in 19 mi ENE 2.2 mph - -  
2:20 AM 42.8 °F - 41.0 °F 93% 29.92 in 6.2 mi Variable 2.3 mph - N/A   Scattered Clouds
2:50 AM 41.0 °F - 39.2 °F 93% 29.92 in 6.2 mi Variable 2.3 mph - N/A   Mostly Cloudy
3:20 AM 41.0 °F - 39.2 °F 93% 29.92 in 6.2 mi Variable 1.2 mph - N/A   Mostly Cloudy
3:50 AM 41.0 °F - 39.2 °F 93% 29.89 in - Variable 1.2 mph - N/A   Clear
4:20 AM 41.0 °F - 39.2 °F 93% 29.89 in - Variable 1.2 mph - N/A   Clear
4:50 AM 41.0 °F - 39.2 °F 93% 29.89 in - Variable 1.2 mph - N/A   Clear
5:00 AM 40 °F - 39 °F 94% 29.92 in 14 mi 2.2 mph - -   Scattered Clouds
5:20 AM 39.2 °F - 39.2 °F 100% 29.86 in - Variable 1.2 mph - N/A   Clear
5:50 AM 41.0 °F - 39.2 °F 93% 29.86 in 6.2 mi Variable 2.3 mph - N/A   Scattered Clouds
6:20 AM 41.0 °F - 39.2 °F 93% 29.86 in 6.2 mi NNW 2.3 mph - N/A   Mostly Cloudy
6:50 AM 42.8 °F - 41.0 °F 93% 29.83 in 6.2 mi Variable 1.2 mph - N/A   Mostly Cloudy
7:20 AM 42.8 °F - 41.0 °F 93% 29.86 in 6.2 mi Variable 1.2 mph - N/A   Mostly Cloudy
7:50 AM 42.8 °F - 41.0 °F 93% 29.86 in 6.2 mi Variable 1.2 mph - N/A   Mostly Cloudy
8:00 AM 43 °F - 40 °F 87% 29.89 in 31 mi 2.2 mph - -   Scattered Clouds
8:20 AM 42.8 °F - 41.0 °F 93% 29.86 in 6.2 mi Variable 1.2 mph - N/A   Mostly Cloudy
8:50 AM 44.6 °F - 41.0 °F 87% 29.86 in 6.2 mi Variable 1.2 mph - N/A Rain Light Rain
9:20 AM 44.6 °F - 41.0 °F 87% 29.86 in 5.0 mi Variable 1.2 mph - N/A Rain Light Rain
9:50 AM 44.6 °F 43.1 °F 41.0 °F 87% 29.86 in 5.0 mi NNE 3.5 mph - N/A Rain Light Rain
10:20 AM 44.6 °F - 42.8 °F 93% 29.86 in 3.7 mi Variable 1.2 mph - N/A Rain Light Rain
10:50 AM 44.6 °F - 42.8 °F 93% 29.89 in 3.7 mi Variable 1.2 mph - N/A Rain Light Rain
11:00 AM 45 °F - 42 °F 87% 29.91 in 4 mi 2.2 mph - - Rain Light Rain
11:20 AM 46.4 °F - 44.6 °F 93% 29.89 in 4.3 mi Variable 1.2 mph - N/A Rain Light Rain
11:50 AM 46.4 °F - 44.6 °F 93% 29.89 in - Variable 1.2 mph - N/A Rain Light Rain
12:20 PM 46.4 °F - 44.6 °F 93% 29.89 in 1.1 mi Variable 1.2 mph - N/A Rain Rain
12:50 PM 48.2 °F - 46.4 °F 93% 29.86 in 2.8 mi South 3.5 mph - N/A Rain Rain
1:20 PM 48.2 °F - 46.4 °F 93% 29.86 in 2.8 mi Variable 2.3 mph - N/A   Light Drizzle
1:50 PM 50.0 °F - 46.4 °F 87% 29.86 in 3.1 mi Variable 1.2 mph - N/A   Mostly Cloudy
2:00 PM 49 °F - 47 °F 90% 29.88 in 3 mi 2.2 mph - - Rain Light Rain
2:20 PM 50.0 °F - 48.2 °F 94% 29.86 in 3.1 mi Variable 2.3 mph - N/A   Mostly Cloudy
2:50 PM 50.0 °F - 48.2 °F 94% 29.86 in 4.3 mi Variable 2.3 mph - N/A   Mostly Cloudy
3:20 PM 50.0 °F - 48.2 °F 94% 29.86 in 5.0 mi Variable 1.2 mph - N/A   Mostly Cloudy
3:50 PM 51.8 °F - 48.2 °F 88% 29.86 in 3.1 mi Variable 1.2 mph - N/A Rain Rain
4:20 PM 51.8 °F - 50.0 °F 94% 29.86 in 2.8 mi Variable 1.2 mph - N/A Rain Rain
4:50 PM 51.8 °F - 50.0 °F 94% 29.86 in 3.7 mi West 3.5 mph - N/A   Mostly Cloudy
5:00 PM 52 °F - 50 °F 89% 29.87 in 4 mi West 4.5 mph - - Rain Light Rain
5:20 PM 53.6 °F - 50.0 °F 88% 29.86 in 4.3 mi WSW 3.5 mph - N/A   Mostly Cloudy
5:50 PM 53.6 °F - 50.0 °F 88% 29.86 in 4.3 mi WSW 3.5 mph - N/A   Mostly Cloudy
6:20 PM 51.8 °F - 50.0 °F 94% 29.86 in 4.3 mi SW 3.5 mph - N/A   Mostly Cloudy
6:50 PM 51.8 °F - 50.0 °F 94% 29.89 in 4.3 mi Variable 1.2 mph - N/A   Mostly Cloudy
7:20 PM 51.8 °F - 51.8 °F 100% 29.89 in 4.3 mi WSW 3.5 mph - N/A   Mostly Cloudy
7:50 PM 53.6 °F - 51.8 °F 94% 29.92 in 5.6 mi West 4.6 mph - N/A   Mostly Cloudy
8:00 PM 53 °F - 51 °F 92% 29.92 in 6 mi West 4.5 mph - -   Partly Cloudy
8:20 PM 53.6 °F - 51.8 °F 94% 29.92 in 5.6 mi WNW 5.8 mph - N/A   Mostly Cloudy
8:50 PM 53.6 °F - 51.8 °F 94% 29.92 in 5.6 mi West 5.8 mph - N/A   Mostly Cloudy
9:20 PM 51.8 °F - 50.0 °F 94% 29.95 in 5.6 mi West 9.2 mph - N/A   Mostly Cloudy
9:50 PM 51.8 °F - 50.0 °F 94% 29.95 in 5.6 mi West 6.9 mph - N/A   Mostly Cloudy
10:20 PM 51.8 °F - 48.2 °F 88% 29.95 in 6.2 mi West 5.8 mph - N/A   Scattered Clouds
10:50 PM 50.0 °F - 46.4 °F 87% 29.95 in 6.2 mi WNW 5.8 mph - N/A   Scattered Clouds
11:00 PM 49 °F - 47 °F 91% 29.98 in 10 mi WNW 6.7 mph - -   Scattered Clouds
11:20 PM 48.2 °F - 46.4 °F 93% 29.95 in 5.6 mi Variable 2.3 mph - N/A   Partly Cloudy
11:50 PM 48.2 °F - 46.4 °F 93% 29.95 in 4.3 mi SSE 3.5 mph - N/A   Partly Cloudy